Wind_Speed
44 42 42 40 40 39 40 42 45 47 51 54 57 60 62 65 67 69 70 71 71 70 69 67 66 65 64 63 63 64 65 65 64 64 66 68 69 69 68 67 63 59 55
44 42 41 41 40 42 43 46 49 52 56 58 61 63 65 67 69 70 70 69 68 66 65 65 64 62 62 63 63 64 65 66 66 65 64 64 63 61 58 53 48 44 42
43 43 42 41 43 45 48 50 53 55 58 60 62 64 66 67 68 68 67 65 64 63 62 61 61 61 61 62 63 64 65 65 64 62 58 55 50 46 42 38 35 34 32
43 44 44 46 48 49 51 53 55 57 59 61 63 64 65 65 64 64 63 62 61 60 60 60 60 61 61 62 62 62 62 59 56 51 45 40 36 33 30 27 26 26 26
47 47 48 49 50 51 52 53 55 57 59 60 61 61 61 60 60 60 59 58 58 58 58 59 60 60 61 60 59 57 53 48 42 36 32 29 27 25 24 22 21 22 22
50 50 50 50 50 50 51 53 54 55 56 57 57 57 57 57 56 56 55 56 56 56 57 58 58 57 56 54 51 47 42 36 29 25 23 22 21 21 20 19 19 18 19
50 50 49 49 49 50 51 52 53 53 53 53 53 53 52 53 54 54 54 54 54 54 54 53 52 51 48 43 38 34 30 25 21 19 18 19 19 19 19 18 18 18 18
50 49 48 48 48 48 49 50 50 49 49 49 49 50 51 51 51 51 52 52 52 51 48 46 44 40 36 31 27 24 21 19 18 17 18 18 19 19 19 19 19 20 21
47 46 46 45 46 46 47 47 47 46 47 47 48 48 49 49 49 49 49 47 46 43 41 38 33 28 25 21 18 16 15 15 16 17 18 19 20 20 21 21 21 21 20
44 43 43 43 43 44 44 44 44 45 46 46 46 47 47 47 47 45 43 40 38 36 33 29 24 19 15 13 12 12 13 15 17 18 20 20 20 20 20 19 18 17 16
42 42 41 41 41 42 42 43 44 44 44 45 45 45 45 43 41 38 35 33 31 28 25 21 16 13 11 11 12 12 14 16 17 18 19 19 18 17 16 15 15 13 13
39 38 39 39 40 40 41 42 42 43 43 43 43 41 39 36 33 31 29 27 25 22 18 14 10 9 10 11 12 13 15 16 18 18 17 16 15 14 14 14 13 13 13
36 37 37 38 38 39 40 41 41 41 40 39 37 35 32 30 28 27 25 23 19 16 11 8 7 8 10 11 12 13 15 17 17 16 15 15 15 15 15 14 15 15 15
34 35 36 37 38 39 39 39 38 37 35 33 31 29 28 27 25 24 21 17 12 8 5 4 5 7 9 11 11 13 15 16 15 16 16 16 16 16 16 16 16 17 18
33 35 36 37 37 37 36 34 32 30 29 28 27 25 24 23 21 18 15 10 4 2 0 2 5 7 9 10 11 13 15 15 15 17 17 16 17 17 17 17 17 18 19
33 34 34 33 32 31 30 28 27 26 25 24 22 20 19 17 15 11 6 2 4 4 4 4 6 7 8 10 12 14 15 15 16 17 17 17 17 18 18 18 18 18 19
31 31 30 29 27 26 24 23 22 21 19 17 16 15 14 11 7 2 4 7 8 7 6 6 7 7 8 10 13 14 15 17 18 18 18 18 18 19 20 20 20 19 19
27 26 25 24 22 21 19 18 16 15 14 13 12 11 9 4 4 8 11 11 10 8 7 7 7 8 10 12 14 15 16 18 19 20 20 21 21 22 22 23 23 21 21
23 21 20 19 17 16 14 12 11 10 9 9 9 7 7 9 12 13 13 12 10 9 8 8 9 9 11 12 14 16 17 19 20 21 22 23 23 25 26 26 26 25 24
19 18 16 15 14 12 10 9 8 7 7 8 8 9 11 13 14 14 13 11 10 9 9 9 10 11 12 13 15 16 17 19 21 22 22 23 24 26 28 29 30 29 28
17 16 14 13 11 10 8 8 8 8 9 10 12 14 15 15 15 14 12 11 10 10 10 10 11 12 13 14 15 16 17 19 20 21 22 23 24 26 28 30 31 31 30
16 15 14 12 11 10 10 10 11 12 13 15 16 17 16 15 14 13 12 11 11 10 10 11 12 13 13 14 15 16 17 18 19 20 21 23 24 26 28 29 30 30 30
16 15 14 13 13 13 13 14 15 16 17 17 17 17 16 15 14 13 12 12 12 12 12 12 13 13 14 14 15 16 17 18 19 20 21 22 23 25 26 28 28 29 30
18 17 16 15 15 16 16 17 17 18 18 18 17 16 16 15 14 14 13 12 12 13 13 13 13 13 14 15 16 17 18 19 19 20 21 22 22 23 24 25 26 26 27
19 18 17 17 17 17 18 18 18 18 18 17 16 16 15 15 15 14 14 13 13 13 13 13 13 14 14 15 16 17 18 18 19 19 20 20 21 21 22 23 23 24 25
22 20 18 17 17 17 17 17 17 17 17 16 16 15 15 15 14 14 14 13 13 13 13 14 14 14 15 15 16 17 17 17 17 17 18 19 19 20 20 21 21 22 23
Wind_Direction
296 297 299 299 297 296 294 295 294 295 296 297 297 297 297 297 298 298 299 299 300 300 301 301 300 299 299 298 297 296 295 294 294 292 291 290 290 291 291 291 291 290 289
295 295 296 296 295 295 295 295 295 295 295 295 296 296 296 296 297 297 298 299 300 300 301 301 300 300 299 298 297 296 296 295 295 294 293 294 294 294 294 295 294 292 290
292 293 294 295 296 296 296 296 295 294 294 295 295 295 295 296 297 298 299 300 300 301 301 301 300 300 299 298 297 296 296 296 297 297 297 297 298 298 297 297 297 295 293
292 293 294 295 296 296 296 296 295 294 294 294 294 295 295 296 298 299 300 301 302 302 302 301 300 300 299 298 298 298 298 299 300 302 302 301 300 300 301 301 300 299 299
296 296 296 296 296 295 294 294 293 293 293 294 294 295 296 297 298 300 301 301 302 302 302 301 300 300 299 300 300 300 301 303 304 303 303 303 303 304 305 305 304 303 304
299 298 297 296 295 293 293 293 293 293 293 294 294 295 297 298 299 300 301 302 302 302 301 301 301 302 302 303 304 304 305 306 306 305 305 306 307 308 308 308 307 307 307
298 298 297 295 293 293 293 294 294 294 294 294 295 296 298 299 299 300 301 301 301 301 301 302 303 304 306 306 307 307 308 311 313 313 312 312 312 312 311 310 310 309 308
297 296 295 294 293 294 294 294 294 294 294 295 296 297 298 299 299 300 300 300 301 302 303 305 307 308 308 308 308 308 311 316 318 319 320 319 317 315 313 311 309 307 306
295 294 293 293 294 294 294 294 294 294 295 296 297 297 298 298 299 299 300 301 303 304 306 308 310 310 309 310 312 314 318 322 325 326 325 323 320 318 315 312 310 308 305
293 293 293 294 293 293 293 293 294 295 295 296 297 297 298 298 299 300 301 303 305 308 310 312 314 314 316 321 326 329 331 331 330 329 326 324 322 321 321 321 319 317 314
293 293 293 293 292 292 293 294 294 295 296 296 297 297 298 298 299 300 301 304 306 308 310 313 316 323 331 338 339 338 337 335 334 332 331 331 332 334 337 340 341 342 342
292 292 292 292 292 293 294 295 295 296 296 297 297 297 298 299 299 301 303 305 306 307 309 312 321 333 342 345 344 342 342 343 343 344 347 352 356 358 360 4 6 9 9
292 293 294 294 295 295 295 296 296 297 297 298 298 299 299 299 300 301 302 303 303 303 304 312 330 344 348 347 347 348 349 351 354 0 8 13 15 17 21 23 24 25 25
295 296 297 297 297 297 297 297 298 299 299 300 300 300 300 300 300 301 301 301 297 291 292 324 350 355 355 353 354 358 0 6 15 21 21 23 26 29 32 34 36 35 33
299 299 299 299 298 298 299 300 301 301 302 302 302 302 303 303 302 300 300 297 281 231 139 28 12 7 4 5 8 10 16 27 30 27 30 34 36 38 39 39 38 37 36
303 302 302 302 302 302 303 303 303 304 305 306 306 307 307 307 304 301 296 227 147 127 98 56 31 20 19 21 22 25 34 37 35 35 37 39 40 40 40 39 37 36 36
308 308 307 307 307 307 307 308 309 311 313 314 315 316 315 314 310 311 128 129 122 109 86 62 44 38 36 36 37 43 47 44 43 43 43 43 42 40 38 35 33 33 35
316 315 314 313 313 314 315 316 318 321 325 328 330 331 337 359 85 112 117 115 108 96 80 64 55 51 50 50 50 55 54 51 50 50 50 48 46 43 40 37 37 38 41
327 326 325 325 326 327 327 329 332 337 343 349 356 14 49 85 101 107 108 105 98 88 76 67 64 62 62 60 61 62 60 58 56 54 53 52 50 48 46 45 45 47 49
341 340 339 340 342 345 348 354 1 10 17 27 45 67 84 94 100 102 101 97 89 81 75 72 72 74 72 70 70 69 66 63 59 56 56 55 53 51 50 50 50 53 55
356 356 357 360 5 13 24 34 42 48 56 67 77 85 91 96 98 97 93 87 82 78 78 79 82 84 81 78 76 74 70 66 63 60 59 59 57 55 54 54 54 55 59
10 12 17 24 33 45 54 58 64 71 78 83 86 89 91 92 90 88 84 80 79 81 85 88 90 90 88 84 81 77 73 69 65 63 63 63 61 60 59 58 57 58 61
23 29 37 45 54 60 66 71 76 80 83 86 86 85 84 82 81 79 78 78 81 86 91 95 96 96 94 90 87 82 76 72 68 67 67 66 65 63 62 61 60 61 62
37 43 50 57 65 71 75 79 81 82 83 83 82 80 77 75 75 75 76 78 83 91 95 99 101 100 98 95 90 84 79 75 72 70 69 68 66 64 63 62 61 61 61
45 50 57 65 71 76 79 80 81 81 80 79 77 76 74 73 72 72 74 79 86 93 98 102 104 103 102 99 94 88 84 79 75 72 70 68 66 63 62 61 60 59 59
49 55 61 67 73 77 79 80 80 79 77 75 74 72 71 70 69 70 74 79 86 94 99 103 105 105 103 100 97 92 86 81 77 73 69 67 64 62 60 59 57 56 55
Height
5776 5773 5770 5768 5765 5763 5761 5758 5755 5751 5747 5743 5739 5735 5730 5725 5719 5714 5708 5702 5696 5689 5682 5676 5669 5662 5655 5647 5640 5633 5626 5620 5617 5613 5603 5594 5586 5579 5573 5566 5561 5556 5551
5767 5764 5761 5759 5756 5753 5751 5747 5744 5739 5735 5731 5726 5721 5716 5711 5705 5699 5693 5687 5680 5674 5667 5660 5653 5646 5639 5631 5624 5617 5609 5602 5597 5593 5586 5576 5568 5561 5555 5550 5545 5540 5536
5758 5755 5752 5749 5746 5743 5739 5736 5732 5727 5722 5717 5712 5707 5702 5696 5690 5684 5678 5671 5665 5659 5652 5645 5638 5631 5623 5616 5608 5601 5593 5586 5578 5573 5568 5560 5553 5546 5542 5538 5533 5528 5524
5749 5746 5742 5739 5735 5731 5727 5723 5719 5714 5709 5704 5698 5692 5687 5681 5675 5669 5663 5657 5650 5644 5637 5630 5623 5616 5609 5601 5593 5585 5578 5571 5564 5558 5552 5547 5541 5536 5532 5529 5525 5520 5516
5738 5735 5731 5727 5723 5719 5714 5710 5705 5700 5695 5689 5684 5678 5672 5667 5661 5655 5649 5643 5637 5630 5623 5616 5608 5601 5594 5586 5579 5571 5564 5558 5552 5547 5542 5538 5534 5530 5526 5522 5519 5515 5510
5726 5722 5718 5714 5709 5705 5700 5696 5691 5686 5681 5675 5670 5664 5659 5653 5648 5642 5636 5630 5624 5618 5611 5603 5594 5587 5580 5573 5565 5558 5553 5548 5544 5540 5536 5532 5528 5525 5521 5517 5514 5510 5506
5713 5708 5704 5700 5695 5691 5686 5682 5677 5672 5667 5661 5656 5651 5646 5641 5636 5630 5624 5618 5612 5606 5599 5591 5583 5576 5569 5563 5556 5550 5545 5541 5538 5534 5531 5528 5524 5521 5517 5513 5509 5506 5502
5699 5695 5691 5686 5682 5677 5673 5668 5663 5658 5654 5649 5644 5639 5634 5629 5624 5618 5612 5606 5600 5594 5588 5581 5574 5567 5561 5556 5551 5546 5542 5538 5534 5531 5527 5524 5520 5516 5512 5509 5505 5502 5498
5686 5682 5677 5673 5669 5664 5660 5655 5650 5646 5642 5637 5632 5627 5622 5617 5612 5607 5601 5595 5589 5583 5578 5572 5567 5561 5556 5551 5547 5543 5540 5536 5532 5528 5524 5520 5516 5512 5508 5504 5500 5497 5493
5672 5668 5664 5660 5656 5651 5647 5643 5638 5634 5630 5625 5620 5615 5610 5605 5600 5595 5590 5585 5580 5575 5571 5566 5561 5557 5552 5548 5545 5542 5538 5534 5530 5526 5522 5517 5513 5508 5504 5500 5496 5492 5489
5660 5656 5652 5648 5644 5640 5635 5631 5626 5622 5618 5613 5609 5604 5599 5594 5590 5586 5582 5578 5574 5570 5565 5561 5557 5554 5550 5547 5544 5541 5537 5533 5529 5524 5519 5515 5510 5505 5501 5497 5493 5490 5486
5649 5645 5641 5637 5632 5628 5623 5619 5615 5610 5606 5601 5597 5593 5588 5584 5581 5577 5574 5571 5567 5564 5561 5558 5555 5552 5550 5546 5543 5540 5536 5532 5527 5522 5517 5513 5508 5504 5500 5496 5493 5489 5486
5638 5634 5630 5625 5621 5617 5612 5608 5603 5599 5594 5590 5586 5582 5579 5575 5572 5570 5567 5564 5562 5560 5558 5556 5554 5551 5549 5546 5543 5539 5535 5530 5526 5521 5517 5513 5509 5505 5501 5498 5494 5491 5487
5628 5623 5619 5615 5610 5605 5601 5597 5592 5588 5584 5580 5577 5574 5570 5568 5565 5562 5560 5559 5557 5556 5555 5554 5553 5551 5549 5546 5543 5539 5535 5530 5526 5522 5518 5514 5510 5507 5503 5500 5496 5493 5489
5618 5614 5609 5604 5599 5595 5591 5587 5583 5579 5576 5573 5569 5566 5563 5560 5558 5556 5554 5554 5554 5554 5554 5554 5552 5551 5549 5546 5543 5539 5535 5531 5527 5524 5520 5516 5513 5509 5506 5502 5499 5496 5492
5609 5604 5599 5595 5590 5586 5583 5579 5575 5572 5569 5565 5562 5559 5556 5554 5552 5551 5551 5551 5552 5553 5554 5553 5552 5551 5549 5546 5543 5540 5537 5533 5530 5526 5523 5519 5516 5513 5509 5506 5502 5499 5495
5601 5596 5591 5586 5583 5579 5575 5572 5569 5566 5563 5560 5557 5554 5552 5550 5549 5549 5550 5551 5552 5554 5554 5554 5553 5552 5550 5547 5545 5542 5539 5536 5533 5529 5526 5523 5519 5516 5513 5509 5505 5502 5498
5594 5589 5584 5580 5576 5573 5570 5567 5564 5561 5559 5556 5554 5552 5550 5548 5548 5549 5550 5552 5554 5555 5555 5555 5554 5553 5551 5549 5547 5545 5542 5540 5537 5534 5530 5527 5524 5521 5517 5513 5509 5505 5502
5588 5583 5579 5575 5572 5569 5566 5564 5561 5559 5557 5555 5553 5551 5550 5550 5550 5551 5553 5555 5556 5557 5557 5556 5556 5555 5553 5552 5550 5548 5546 5544 5541 5538 5535 5533 5529 5526 5522 5518 5514 5510 5507
5585 5580 5576 5573 5570 5567 5564 5562 5561 5559 5557 5556 5554 5553 5553 5553 5554 5555 5557 5558 5558 5559 5559 5558 5558 5557 5556 5555 5554 5552 5551 5549 5546 5544 5541 5538 5536 5532 5529 5525 5521 5517 5514
5583 5579 5575 5572 5569 5567 5565 5563 5562 5560 5559 5558 5557 5557 5557 5557 5558 5559 5560 5561 5561 5561 5561 5560 5560 5560 5559 5558 5558 5557 5555 5553 5551 5549 5547 5544 5542 5539 5536 5532 5529 5525 5522
5583 5579 5576 5573 5571 5568 5567 5565 5564 5563 5562 5562 5562 5561 5562 5562 5563 5563 5563 5563 5563 5563 5563 5563 5563 5563 5563 5562 5562 5561 5560 5558 5557 5555 5553 5551 5549 5546 5543 5541 5538 5535 5531
5585 5582 5578 5576 5574 5572 5570 5569 5568 5567 5567 5567 5567 5567 5567 5567 5567 5566 5566 5566 5566 5566 5566 5566 5567 5567 5567 5566 5566 5565 5564 5563 5562 5560 5559 5557 5555 5553 5551 5549 5546 5544 5541
5588 5585 5582 5580 5578 5576 5575 5574 5573 5573 5572 5572 5572 5571 5571 5571 5570 5570 5570 5569 5569 5569 5570 5570 5570 5570 5571 5571 5570 5570 5569 5568 5567 5566 5565 5563 5562 5560 5558 5556 5554 5552 5550
5592 5589 5587 5585 5583 5582 5581 5580 5579 5578 5578 5577 5576 5576 5575 5575 5574 5574 5573 5573 5573 5573 5573 5574 5574 5574 5575 5575 5575 5575 5574 5574 5573 5572 5571 5570 5568 5567 5565 5563 5561 5559 5557
5597 5594 5592 5590 5588 5587 5586 5585 5584 5583 5583 5582 5581 5580 5580 5579 5578 5578 5577 5577 5577 5577 5577 5578 5578 5578 5579 5579 5579 5579 5579 5579 5578 5578 5577 5576 5574 5573 5571 5570 5568 5566 5564